Powrót do katalogu

CZ-3B DEB

AktywnyGTO
NORAD 42475·DEBRIS·🇨🇳 China

Wystrzelony Dec 19, 2011 z Xichang Satellite Launch Center

Loading…

TLE

NieaktualneSource: Space-Track

Epoka: Sep 5, 2026, 06:24 UTC

1 42475U 11077AQ  26248.26729750  .00000048  00000-0  89681-3 0  9995
2 42475  26.1929 282.9343 7424381 165.7902 240.9272  1.91475872 34426

Śledź CZ-3B DEB w czasie rzeczywistym z AllMySat

Download on the App Store